Flag for Norway Weather past 2 weeks in Langevåg, Norway

Now
52 °F

Overcast.


Feels Like: 51 °F
Forecast: 51 / 60 °F
Wind: 5 mph from Southwest

Location: Alesund / Vigra

Current Time: Aug 2, 2015 at 3:06:16 AM

Latest Report: Aug 2, 2015 at 2:20 AM


Visibility: N/A

Pressure: 29.86 "Hg

Humidity: 94%

Dew point: 50 °F

Location of LangevågLocation

Historic Weather in Langevåg — Graph

°F

Langevåg temperature yesterday

Maximum temperature yesterday: 61 °F (at 12:50 PM)
Minimum temperature yesterday: 46 °F (at 2:20 AM)
Average temperature yesterday: 54 °F

Past Weeks' High & Low Weather Summary

 TemperatureHumidityPressure
High61 °F (Jul 23, 2:20 PM)100% (Jul 19, 4:50 AM)29.92 "Hg (Jul 19, 4:50 AM)
Low46 °F (Jul 31, 3:20 AM)59% (Aug 1, 12:50 PM)29.42 "Hg (Jul 18, 7:50 PM)
Average54 °F83%29.68 "Hg
* Reported Jul 18 1:20 AM — Aug 2 1:50 AM, Langevåg, Weather by CustomWeather, © 2015

Note: Actual official high and low records may vary slightly from our data, if they occured in-between our weather recording intervals... More about our weather records

Advertising

Langevåg weather history for previous 24 hours

 ConditionsComfort  
Time TempWeatherWind HumidityBarometerVisibility
1:50 AM
Sun, Aug 2
52 °FOvercast.No wind94%29.86 "HgN/A
1:20 AM52 °FOvercast.1 mph94%29.86 "HgN/A
12:50 AM54 °FPassing clouds.2 mph88%29.86 "HgN/A
11:50 PM
Sat, Aug 1
54 °FPassing clouds.2 mph88%29.86 "HgN/A
11:20 PM54 °FLight rain. Passing clouds.No wind94%29.86 "HgN/A
10:50 PM55 °FDrizzle. Overcast.6 mph82%29.86 "HgN/A
10:20 PM55 °FSunny.9 mph82%29.86 "Hg10 mi
9:50 PM55 °FSunny.9 mph82%29.86 "Hg10 mi
9:20 PM55 °FSunny.10 mph82%29.86 "Hg10 mi
8:50 PM55 °FSunny.14 mph77%29.86 "Hg10 mi
8:20 PM55 °FSunny.16 mph77%29.86 "Hg10 mi
7:50 PM55 °FSunny.15 mph72%29.86 "Hg10 mi
7:20 PM57 °FSunny.13 mph72%29.86 "Hg10 mi
6:50 PM57 °FSunny.12 mph67%29.86 "Hg10 mi
6:20 PM59 °FSunny.15 mph63%29.89 "Hg10 mi
5:20 PM59 °FSunny.14 mph68%29.89 "Hg10 mi
4:20 PM57 °FSunny.13 mph72%29.89 "Hg10 mi
3:50 PM57 °FSunny.9 mph72%29.89 "Hg10 mi
3:20 PM59 °FSunny.12 mph63%29.89 "Hg10 mi
2:50 PM57 °FSunny.9 mph63%29.89 "Hg10 mi
2:20 PM59 °FSunny.12 mph59%29.89 "Hg10 mi
1:50 PM59 °FSunny.12 mph59%29.89 "Hg10 mi
1:20 PM59 °FSunny.10 mph63%29.89 "Hg10 mi
12:50 PM61 °FSunny.10 mph59%29.89 "Hg10 mi
12:20 PM57 °FSunny.12 mph67%29.89 "Hg10 mi
11:50 AM57 °FSunny.9 mph67%29.89 "Hg10 mi
11:20 AM57 °FSunny.10 mph63%29.89 "Hg10 mi
10:50 AM57 °FSunny.6 mph67%29.89 "Hg10 mi
10:20 AM57 °FPassing clouds.3 mph63%29.92 "HgN/A
9:50 AM57 °FPassing clouds.3 mph63%29.92 "HgN/A
9:20 AM55 °FSunny.6 mph67%29.92 "Hg10 mi
8:50 AM54 °FSunny.5 mph72%29.92 "Hg10 mi
8:20 AM52 °FSunny.7 mph77%29.92 "Hg10 mi
7:50 AM52 °FSunny.8 mph77%29.92 "Hg10 mi
7:20 AM50 °FSunny.7 mph76%29.92 "Hg10 mi
6:50 AM48 °FSunny.7 mph87%29.92 "Hg10 mi
6:20 AM48 °FSunny.7 mph87%29.92 "Hg10 mi
5:50 AM48 °FClear.8 mph87%29.92 "Hg10 mi
5:20 AM48 °FOvercast.8 mph87%29.92 "HgN/A
4:50 AM48 °FPassing clouds.8 mph87%29.92 "HgN/A
4:20 AM48 °FMostly cloudy.7 mph87%29.92 "HgN/A
3:50 AM46 °FPassing clouds.7 mph93%29.92 "HgN/A
3:20 AM46 °FCool.8 mph87%29.92 "HgN/A
Weather by CustomWeather, © 2015

See weather overviewHow to use our weather pages